Year,Month,Day,Hour,Minute,Value (Times are PST for temperature in C)
2009,08,15,00,00,13.70
2009,08,15,00,01,13.70
2009,08,15,00,02,13.70
2009,08,15,00,03,13.70
2009,08,15,00,04,13.70
2009,08,15,00,05,13.70
2009,08,15,00,06,13.70
2009,08,15,00,07,13.70
2009,08,15,00,08,13.70
2009,08,15,00,09,13.70
2009,08,15,00,10,13.70
2009,08,15,00,11,13.70
2009,08,15,00,12,13.70
2009,08,15,00,13,13.70
2009,08,15,00,14,13.70
2009,08,15,00,15,13.70
2009,08,15,00,16,13.70
2009,08,15,00,17,13.70
2009,08,15,00,18,13.70
2009,08,15,00,19,13.70
2009,08,15,00,20,13.70
2009,08,15,00,21,13.70
2009,08,15,00,22,13.70
2009,08,15,00,23,13.70
2009,08,15,00,24,13.70
2009,08,15,00,25,13.70
2009,08,15,00,26,13.70
2009,08,15,00,27,13.70
2009,08,15,00,28,13.70
2009,08,15,00,29,13.70
2009,08,15,00,30,13.60
2009,08,15,00,31,13.60
2009,08,15,00,32,13.60
2009,08,15,00,33,13.60
2009,08,15,00,34,13.60
2009,08,15,00,35,13.50
2009,08,15,00,36,13.50
2009,08,15,00,37,13.50
2009,08,15,00,38,13.50
2009,08,15,00,39,13.40
2009,08,15,00,40,13.40
2009,08,15,00,41,13.40
2009,08,15,00,42,13.40
2009,08,15,00,43,13.40
2009,08,15,00,44,13.30
2009,08,15,00,45,13.30
2009,08,15,00,46,13.30
2009,08,15,00,47,13.30
2009,08,15,00,48,13.30
2009,08,15,00,49,13.30
2009,08,15,00,50,13.20
2009,08,15,00,51,13.20
2009,08,15,00,52,13.20
2009,08,15,00,53,13.20
2009,08,15,00,54,13.20
2009,08,15,00,55,13.20
2009,08,15,00,56,13.20
2009,08,15,00,57,13.20
2009,08,15,00,58,13.20
2009,08,15,00,59,13.20
2009,08,15,01,00,13.20
2009,08,15,01,01,13.20
2009,08,15,01,02,13.20
2009,08,15,01,03,13.30
2009,08,15,01,04,13.30
2009,08,15,01,05,13.30
2009,08,15,01,06,13.30
2009,08,15,01,07,13.30
2009,08,15,01,08,13.30
2009,08,15,01,09,13.30
2009,08,15,01,10,13.30
2009,08,15,01,11,13.30
2009,08,15,01,12,13.30
2009,08,15,01,13,13.30
2009,08,15,01,14,13.30
2009,08,15,01,15,13.30
2009,08,15,01,16,13.30
2009,08,15,01,17,13.30
2009,08,15,01,18,13.30
2009,08,15,01,19,13.30
2009,08,15,01,20,13.30
2009,08,15,01,21,13.30
2009,08,15,01,22,13.30
2009,08,15,01,23,13.30
2009,08,15,01,24,13.30
2009,08,15,01,25,13.30
2009,08,15,01,26,13.30
2009,08,15,01,27,13.30
2009,08,15,01,28,13.30
2009,08,15,01,29,13.30
2009,08,15,01,30,13.30
2009,08,15,01,31,13.30
2009,08,15,01,32,13.30
2009,08,15,01,33,13.30
2009,08,15,01,34,13.30
2009,08,15,01,35,13.30
2009,08,15,01,36,13.30
2009,08,15,01,37,13.30
2009,08,15,01,38,13.30
2009,08,15,01,39,13.20
2009,08,15,01,40,13.20
2009,08,15,01,41,13.20
2009,08,15,01,42,13.20
2009,08,15,01,43,13.20
2009,08,15,01,44,13.20
2009,08,15,01,45,13.20
2009,08,15,01,46,13.20
2009,08,15,01,47,13.20
2009,08,15,01,48,13.10
2009,08,15,01,49,13.10
2009,08,15,01,50,13.10
2009,08,15,01,51,13.10
2009,08,15,01,52,13.10
2009,08,15,01,53,13.10
2009,08,15,01,54,13.10
2009,08,15,01,55,13.10
2009,08,15,01,56,13.10
2009,08,15,01,57,13.10
2009,08,15,01,58,13.10
2009,08,15,01,59,13.10
2009,08,15,02,00,13.10
2009,08,15,02,01,13.10
2009,08,15,02,02,13.10
2009,08,15,02,03,13.10
2009,08,15,02,04,13.10
2009,08,15,02,05,13.10
2009,08,15,02,06,13.10
2009,08,15,02,07,13.10
2009,08,15,02,08,13.10
2009,08,15,02,09,13.10
2009,08,15,02,10,13.10
2009,08,15,02,11,13.10
2009,08,15,02,12,13.10
2009,08,15,02,13,13.10
2009,08,15,02,14,13.10
2009,08,15,02,15,13.10
2009,08,15,02,16,13.10
2009,08,15,02,17,13.10
2009,08,15,02,18,13.10
2009,08,15,02,19,13.10
2009,08,15,02,20,13.20
2009,08,15,02,21,13.20
2009,08,15,02,22,13.20
2009,08,15,02,23,13.20
2009,08,15,02,24,13.20
2009,08,15,02,25,13.20
2009,08,15,02,26,13.20
2009,08,15,02,27,13.20
2009,08,15,02,28,13.20
2009,08,15,02,29,13.20
2009,08,15,02,30,13.20
2009,08,15,02,31,13.20
2009,08,15,02,32,13.10
2009,08,15,02,33,13.10
2009,08,15,02,34,13.10
2009,08,15,02,35,13.10
2009,08,15,02,36,13.10
2009,08,15,02,37,13.10
2009,08,15,02,38,13.10
2009,08,15,02,39,13.10
2009,08,15,02,40,13.10
2009,08,15,02,41,13.00
2009,08,15,02,42,13.00
2009,08,15,02,43,13.00
2009,08,15,02,44,13.00
2009,08,15,02,45,12.90
2009,08,15,02,46,12.90
2009,08,15,02,47,12.90
2009,08,15,02,48,12.90
2009,08,15,02,49,12.80
2009,08,15,02,50,12.80
2009,08,15,02,51,12.80
2009,08,15,02,52,12.80
2009,08,15,02,53,12.80
2009,08,15,02,54,12.80
2009,08,15,02,55,12.80
2009,08,15,02,56,12.80
2009,08,15,02,57,12.70
2009,08,15,02,58,12.70
2009,08,15,02,59,12.70
2009,08,15,03,00,12.70
2009,08,15,03,01,12.70
2009,08,15,03,02,12.60
2009,08,15,03,03,12.60
2009,08,15,03,04,12.60
2009,08,15,03,05,12.60
2009,08,15,03,06,12.60
2009,08,15,03,07,12.60
2009,08,15,03,08,12.50
2009,08,15,03,09,12.50
2009,08,15,03,10,12.50
2009,08,15,03,11,12.50
2009,08,15,03,12,12.50
2009,08,15,03,13,12.50
2009,08,15,03,14,12.40
2009,08,15,03,15,12.40
2009,08,15,03,16,12.40
2009,08,15,03,17,12.40
2009,08,15,03,18,12.40
2009,08,15,03,19,12.30
2009,08,15,03,20,12.30
2009,08,15,03,21,12.30
2009,08,15,03,22,12.30
2009,08,15,03,23,12.30
2009,08,15,03,24,12.20
2009,08,15,03,25,12.20
2009,08,15,03,26,12.10
2009,08,15,03,27,12.10
2009,08,15,03,28,12.10
2009,08,15,03,29,12.00
2009,08,15,03,30,12.00
2009,08,15,03,31,12.00
2009,08,15,03,32,12.00
2009,08,15,03,33,11.90
2009,08,15,03,34,11.90
2009,08,15,03,35,11.90
2009,08,15,03,36,11.90
2009,08,15,03,37,11.90
2009,08,15,03,38,11.90
2009,08,15,03,39,11.90
2009,08,15,03,40,11.90
2009,08,15,03,41,11.80
2009,08,15,03,42,11.80
2009,08,15,03,43,11.80
2009,08,15,03,44,11.80
2009,08,15,03,45,11.80
2009,08,15,03,46,11.80
2009,08,15,03,47,11.80
2009,08,15,03,48,11.80
2009,08,15,03,49,11.80
2009,08,15,03,50,11.80
2009,08,15,03,51,11.80
2009,08,15,03,52,11.80
2009,08,15,03,53,11.80
2009,08,15,03,54,11.80
2009,08,15,03,55,11.80
2009,08,15,03,56,11.70
2009,08,15,03,57,11.70
2009,08,15,03,58,11.70
2009,08,15,03,59,11.70
2009,08,15,04,00,11.70
2009,08,15,04,01,11.60
2009,08,15,04,02,11.60
2009,08,15,04,03,11.60
2009,08,15,04,04,11.60
2009,08,15,04,05,11.60
2009,08,15,04,06,11.60
2009,08,15,04,07,11.60
2009,08,15,04,08,11.40
2009,08,15,04,09,11.40
2009,08,15,04,10,11.40
2009,08,15,04,11,11.40
2009,08,15,04,12,11.40
2009,08,15,04,13,11.40
2009,08,15,04,14,11.30
2009,08,15,04,15,11.30
2009,08,15,04,16,11.30
2009,08,15,04,17,11.20
2009,08,15,04,18,11.20
2009,08,15,04,19,11.20
2009,08,15,04,20,11.20
2009,08,15,04,21,11.20
2009,08,15,04,22,11.10
2009,08,15,04,23,11.10
2009,08,15,04,24,11.10
2009,08,15,04,25,11.10
2009,08,15,04,26,11.10
2009,08,15,04,27,11.10
2009,08,15,04,28,11.10
2009,08,15,04,29,11.10
2009,08,15,04,30,11.10
2009,08,15,04,31,11.10
2009,08,15,04,32,10.90
2009,08,15,04,33,10.90
2009,08,15,04,34,10.90
2009,08,15,04,35,10.90
2009,08,15,04,36,10.90
2009,08,15,04,37,10.90
2009,08,15,04,38,10.90
2009,08,15,04,39,10.90
2009,08,15,04,40,10.90
2009,08,15,04,41,10.90
2009,08,15,04,42,10.80
2009,08,15,04,43,10.80
2009,08,15,04,44,10.80
2009,08,15,04,45,10.80
2009,08,15,04,46,10.80
2009,08,15,04,47,10.70
2009,08,15,04,48,10.70
2009,08,15,04,49,10.70
2009,08,15,04,50,10.70
2009,08,15,04,51,10.70
2009,08,15,04,52,10.60
2009,08,15,04,53,10.60
2009,08,15,04,54,10.60
2009,08,15,04,55,10.60
2009,08,15,04,56,10.60
2009,08,15,04,57,10.60
2009,08,15,04,58,10.60
2009,08,15,04,59,10.60
2009,08,15,05,00,10.60
2009,08,15,05,01,10.60
2009,08,15,05,02,10.60
2009,08,15,05,03,10.60
2009,08,15,05,04,10.60
2009,08,15,05,05,10.60
2009,08,15,05,06,10.60
2009,08,15,05,07,10.40
2009,08,15,05,08,10.40
2009,08,15,05,09,10.40
2009,08,15,05,10,10.40
2009,08,15,05,11,10.30
2009,08,15,05,12,9.70
2009,08,15,05,13,9.70
2009,08,15,05,14,9.70
2009,08,15,05,15,9.70
2009,08,15,05,16,9.70
2009,08,15,05,17,9.70
2009,08,15,05,18,9.70
2009,08,15,05,19,9.70
2009,08,15,05,20,9.70
2009,08,15,05,21,9.70
2009,08,15,05,22,9.60
2009,08,15,05,23,9.60
2009,08,15,05,24,9.60
2009,08,15,05,25,9.60
2009,08,15,05,26,9.60
2009,08,15,05,27,9.60
2009,08,15,05,28,9.60
2009,08,15,05,29,9.60
2009,08,15,05,30,9.60
2009,08,15,05,31,9.60
2009,08,15,05,32,9.60
2009,08,15,05,33,9.60
2009,08,15,05,34,9.60
2009,08,15,05,35,9.60
2009,08,15,05,36,9.60
2009,08,15,05,37,9.60
2009,08,15,05,38,9.60
2009,08,15,05,39,9.60
2009,08,15,05,40,9.60
2009,08,15,05,41,9.60
2009,08,15,05,42,9.60
2009,08,15,05,43,9.60
2009,08,15,05,44,9.60
2009,08,15,05,45,9.50
2009,08,15,05,46,9.50
2009,08,15,05,47,9.50
2009,08,15,05,48,9.50
2009,08,15,05,49,9.50
2009,08,15,05,50,9.40
2009,08,15,05,51,9.40
2009,08,15,05,52,9.40
2009,08,15,05,53,9.40
2009,08,15,05,54,9.40
2009,08,15,05,55,9.40
2009,08,15,05,56,9.30
2009,08,15,05,57,9.30
2009,08,15,05,58,9.30
2009,08,15,05,59,9.30
2009,08,15,06,00,9.30
2009,08,15,06,01,9.30
2009,08,15,06,02,9.30
2009,08,15,06,03,9.30
2009,08,15,06,04,9.30
2009,08,15,06,05,9.30
2009,08,15,06,06,9.30
2009,08,15,06,07,9.30
2009,08,15,06,08,9.30
2009,08,15,06,09,9.30
2009,08,15,06,10,9.40
2009,08,15,06,11,9.40
2009,08,15,06,12,9.40
2009,08,15,06,13,9.40
2009,08,15,06,14,9.40
2009,08,15,06,15,9.40
2009,08,15,06,16,9.40
2009,08,15,06,17,9.40
2009,08,15,06,18,9.40
2009,08,15,06,19,9.40
2009,08,15,06,20,9.50
2009,08,15,06,21,9.50
2009,08,15,06,22,9.50
2009,08,15,06,23,9.50
2009,08,15,06,24,9.50
2009,08,15,06,25,9.50
2009,08,15,06,26,9.60
2009,08,15,06,27,9.60
2009,08,15,06,28,9.60
2009,08,15,06,29,9.60
2009,08,15,06,30,9.60
2009,08,15,06,31,9.60
2009,08,15,06,32,9.60
2009,08,15,06,33,9.60
2009,08,15,06,34,9.60
2009,08,15,06,35,9.60
2009,08,15,06,36,9.60
2009,08,15,06,37,9.60
2009,08,15,06,38,9.60
2009,08,15,06,39,9.60
2009,08,15,06,40,9.60
2009,08,15,06,41,9.70
2009,08,15,06,42,9.70
2009,08,15,06,43,9.70
2009,08,15,06,44,9.70
2009,08,15,06,45,9.70
2009,08,15,06,46,9.80
2009,08,15,06,47,9.80
2009,08,15,06,48,9.80
2009,08,15,06,49,9.80
2009,08,15,06,50,9.80
2009,08,15,06,51,9.90
2009,08,15,06,52,9.90
2009,08,15,06,53,9.90
2009,08,15,06,54,9.90
2009,08,15,06,55,9.90
2009,08,15,06,56,10.00
2009,08,15,06,57,10.00
2009,08,15,06,58,10.00
2009,08,15,06,59,10.00
2009,08,15,07,00,10.10
2009,08,15,07,01,10.10
2009,08,15,07,02,10.10
2009,08,15,07,03,10.10
2009,08,15,07,04,10.10
2009,08,15,07,05,10.20
2009,08,15,07,06,10.20
2009,08,15,07,07,10.20
2009,08,15,07,08,10.20
2009,08,15,07,09,10.20
2009,08,15,07,10,10.30
2009,08,15,07,11,10.30
2009,08,15,07,12,10.30
2009,08,15,07,13,10.30
2009,08,15,07,14,10.40
2009,08,15,07,15,10.40
2009,08,15,07,16,10.40
2009,08,15,07,17,10.40
2009,08,15,07,18,10.50
2009,08,15,07,19,10.50
2009,08,15,07,20,10.50
2009,08,15,07,21,10.60
2009,08,15,07,22,10.60
2009,08,15,07,23,10.60
2009,08,15,07,24,10.70
2009,08,15,07,25,10.70
2009,08,15,07,26,10.70
2009,08,15,07,27,10.80
2009,08,15,07,28,10.80
2009,08,15,07,29,10.80
2009,08,15,07,30,10.80
2009,08,15,07,31,10.90
2009,08,15,07,32,10.90
2009,08,15,07,33,10.90
2009,08,15,07,34,11.00
2009,08,15,07,35,11.00
2009,08,15,07,36,11.10
2009,08,15,07,37,11.10
2009,08,15,07,38,11.10
2009,08,15,07,39,11.20
2009,08,15,07,40,11.20
2009,08,15,07,41,11.20
2009,08,15,07,42,11.30
2009,08,15,07,43,11.30
2009,08,15,07,44,11.30
2009,08,15,07,45,11.40
2009,08,15,07,46,11.40
2009,08,15,07,47,11.50
2009,08,15,07,48,11.50
2009,08,15,07,49,11.60
2009,08,15,07,50,11.60
2009,08,15,07,51,11.60
2009,08,15,07,52,11.70
2009,08,15,07,53,11.70
2009,08,15,07,54,11.80
2009,08,15,07,55,11.80
2009,08,15,07,56,11.90
2009,08,15,07,57,12.00
2009,08,15,07,58,12.00
2009,08,15,07,59,12.10
2009,08,15,08,00,12.10
2009,08,15,08,01,12.10
2009,08,15,08,02,12.20
2009,08,15,08,03,12.20
2009,08,15,08,04,12.20
2009,08,15,08,05,12.30
2009,08,15,08,06,12.30
2009,08,15,08,07,12.30
2009,08,15,08,08,12.30
2009,08,15,08,09,12.40
2009,08,15,08,10,12.40
2009,08,15,08,11,12.40
2009,08,15,08,12,12.40
2009,08,15,08,13,12.50
2009,08,15,08,14,12.50
2009,08,15,08,15,12.50
2009,08,15,08,16,12.60
2009,08,15,08,17,12.60
2009,08,15,08,18,12.60
2009,08,15,08,19,12.60
2009,08,15,08,20,12.60
2009,08,15,08,21,12.70
2009,08,15,08,22,12.70
2009,08,15,08,23,12.70
2009,08,15,08,24,12.70
2009,08,15,08,25,12.70
2009,08,15,08,26,12.70
2009,08,15,08,27,12.70
2009,08,15,08,28,12.70
2009,08,15,08,29,12.70
2009,08,15,08,30,12.70
2009,08,15,08,31,12.70
2009,08,15,08,32,12.70
2009,08,15,08,33,12.70
2009,08,15,08,34,12.80
2009,08,15,08,35,12.80
2009,08,15,08,36,12.80
2009,08,15,08,37,12.80
2009,08,15,08,38,12.80
2009,08,15,08,39,12.80
2009,08,15,08,40,12.80
2009,08,15,08,41,12.80
2009,08,15,08,42,12.80
2009,08,15,08,43,12.90
2009,08,15,08,44,12.90
2009,08,15,08,45,12.90
2009,08,15,08,46,12.90
2009,08,15,08,47,12.90
2009,08,15,08,48,12.90
2009,08,15,08,49,12.90
2009,08,15,08,50,13.00
2009,08,15,08,51,12.90
2009,08,15,08,52,12.90
2009,08,15,08,53,13.00
2009,08,15,08,54,13.00
2009,08,15,08,55,13.00
2009,08,15,08,56,13.00
2009,08,15,08,57,13.00
2009,08,15,08,58,13.00
2009,08,15,08,59,13.10
2009,08,15,09,00,13.10
2009,08,15,09,01,13.10
2009,08,15,09,02,13.10
2009,08,15,09,03,13.20
2009,08,15,09,04,13.20
2009,08,15,09,05,13.20
2009,08,15,09,06,13.20
2009,08,15,09,07,13.20
2009,08,15,09,08,13.20
2009,08,15,09,09,13.20
2009,08,15,09,10,13.30
2009,08,15,09,11,13.30
2009,08,15,09,12,13.30
2009,08,15,09,13,13.30
2009,08,15,09,14,13.30
2009,08,15,09,15,13.30
2009,08,15,09,16,13.30
2009,08,15,09,17,13.30
2009,08,15,09,18,13.30
2009,08,15,09,19,13.40
2009,08,15,09,20,13.40
2009,08,15,09,21,13.40
2009,08,15,09,22,13.50
2009,08,15,09,23,13.50
2009,08,15,09,24,13.50
2009,08,15,09,25,13.60
2009,08,15,09,26,13.60
2009,08,15,09,27,13.70
2009,08,15,09,28,13.70
2009,08,15,09,29,13.70
2009,08,15,09,30,13.70
2009,08,15,09,31,13.80
2009,08,15,09,32,13.80
2009,08,15,09,33,13.80
2009,08,15,09,34,13.90
2009,08,15,09,35,13.90
2009,08,15,09,36,13.90
2009,08,15,09,37,13.90
2009,08,15,09,38,13.90
2009,08,15,09,39,14.00
2009,08,15,09,40,14.00
2009,08,15,09,41,14.00
2009,08,15,09,42,14.10
2009,08,15,09,43,14.10
2009,08,15,09,44,14.10
2009,08,15,09,45,14.10
2009,08,15,09,46,14.10
2009,08,15,09,47,14.10
2009,08,15,09,48,14.10
2009,08,15,09,49,14.20
2009,08,15,09,50,14.20
2009,08,15,09,51,14.20
2009,08,15,09,52,14.30
2009,08,15,09,53,14.30
2009,08,15,09,54,14.30
2009,08,15,09,55,14.40
2009,08,15,09,56,14.40
2009,08,15,09,57,14.40
2009,08,15,09,58,14.40
2009,08,15,09,59,14.30
2009,08,15,10,00,14.30
2009,08,15,10,01,14.40
2009,08,15,10,02,14.40
2009,08,15,10,03,14.40
2009,08,15,10,04,14.40
2009,08,15,10,05,14.40
2009,08,15,10,06,14.40
2009,08,15,10,07,14.40
2009,08,15,10,08,14.40
2009,08,15,10,09,14.40
2009,08,15,10,10,14.40
2009,08,15,10,11,14.40
2009,08,15,10,12,14.40
2009,08,15,10,13,14.40
2009,08,15,10,14,14.50
2009,08,15,10,15,14.50
2009,08,15,10,16,14.50
2009,08,15,10,17,14.50
2009,08,15,10,18,14.50
2009,08,15,10,19,14.60
2009,08,15,10,20,14.60
2009,08,15,10,21,14.60
2009,08,15,10,22,14.60
2009,08,15,10,23,14.60
2009,08,15,10,24,14.60
2009,08,15,10,25,14.60
2009,08,15,10,26,14.60
2009,08,15,10,27,14.70
2009,08,15,10,28,14.70
2009,08,15,10,29,14.80
2009,08,15,10,30,14.80
2009,08,15,10,31,14.90
2009,08,15,10,32,14.90
2009,08,15,10,33,15.00
2009,08,15,10,34,15.00
2009,08,15,10,35,15.00
2009,08,15,10,36,15.00
2009,08,15,10,37,15.00
2009,08,15,10,38,15.00
2009,08,15,10,39,15.00
2009,08,15,10,40,15.00
2009,08,15,10,41,15.00
2009,08,15,10,42,15.00
2009,08,15,10,43,15.00
2009,08,15,10,44,15.00
2009,08,15,10,45,15.00
2009,08,15,10,46,15.00
2009,08,15,10,47,15.10
2009,08,15,10,48,15.10
2009,08,15,10,49,15.20
2009,08,15,10,50,15.20
2009,08,15,10,51,15.20
2009,08,15,10,52,15.20
2009,08,15,10,53,15.30
2009,08,15,10,54,15.30
2009,08,15,10,55,15.30
2009,08,15,10,56,15.30
2009,08,15,10,57,15.30
2009,08,15,10,58,15.40
2009,08,15,10,59,15.40
2009,08,15,11,00,15.50
2009,08,15,11,01,15.60
2009,08,15,11,02,15.60
2009,08,15,11,03,15.60
2009,08,15,11,04,15.70
2009,08,15,11,05,15.80
2009,08,15,11,06,15.80
2009,08,15,11,07,15.80
2009,08,15,11,08,15.90
2009,08,15,11,09,15.90
2009,08,15,11,10,15.90
2009,08,15,11,11,15.90
2009,08,15,11,12,16.00
2009,08,15,11,13,16.00
2009,08,15,11,14,16.10
2009,08,15,11,15,16.20
2009,08,15,11,16,16.30
2009,08,15,11,17,16.30
2009,08,15,11,18,16.40
2009,08,15,11,19,16.50
2009,08,15,11,20,16.60
2009,08,15,11,21,16.60
2009,08,15,11,22,16.60
2009,08,15,11,23,16.60
2009,08,15,11,24,16.60
2009,08,15,11,25,16.60
2009,08,15,11,26,16.60
2009,08,15,11,27,16.60
2009,08,15,11,28,16.50
2009,08,15,11,29,16.50
2009,08,15,11,30,16.40
2009,08,15,11,31,16.40
2009,08,15,11,32,16.40
2009,08,15,11,33,16.50
2009,08,15,11,34,16.60
2009,08,15,11,35,16.60
2009,08,15,11,36,16.60
2009,08,15,11,37,16.70
2009,08,15,11,38,16.70
2009,08,15,11,39,16.60
2009,08,15,11,40,16.50
2009,08,15,11,41,16.50
2009,08,15,11,42,16.50
2009,08,15,11,43,16.40
2009,08,15,11,44,16.40
2009,08,15,11,45,16.30
2009,08,15,11,46,16.20
2009,08,15,11,47,16.10
2009,08,15,11,48,16.00
2009,08,15,11,49,15.90
2009,08,15,11,50,15.80
2009,08,15,11,51,15.60
2009,08,15,11,52,15.60
2009,08,15,11,53,15.60
2009,08,15,11,54,15.60
2009,08,15,11,55,15.70
2009,08,15,11,56,15.70
2009,08,15,11,57,15.70
2009,08,15,11,58,15.70
2009,08,15,11,59,15.70
2009,08,15,12,00,15.80
2009,08,15,12,01,15.80
2009,08,15,12,02,15.90
2009,08,15,12,03,15.90
2009,08,15,12,04,15.90
2009,08,15,12,05,15.90
2009,08,15,12,06,15.90
2009,08,15,12,07,15.90
2009,08,15,12,08,15.90
2009,08,15,12,09,15.90
2009,08,15,12,10,15.90
2009,08,15,12,11,15.90
2009,08,15,12,12,15.80
2009,08,15,12,13,15.80
2009,08,15,12,14,15.80
2009,08,15,12,15,15.70
2009,08,15,12,16,15.70
2009,08,15,12,17,15.80
2009,08,15,12,18,15.80
2009,08,15,12,19,15.90
2009,08,15,12,20,16.00
2009,08,15,12,21,16.20
2009,08,15,12,22,16.30
2009,08,15,12,23,16.30
2009,08,15,12,24,16.20
2009,08,15,12,25,16.20
2009,08,15,12,26,16.20
2009,08,15,12,27,16.30
2009,08,15,12,28,16.30
2009,08,15,12,29,16.30
2009,08,15,12,30,16.30
2009,08,15,12,31,16.20
2009,08,15,12,32,16.10
2009,08,15,12,33,16.10
2009,08,15,12,34,16.00
2009,08,15,12,35,16.00
2009,08,15,12,36,15.90
2009,08,15,12,37,15.90
2009,08,15,12,38,15.90
2009,08,15,12,39,15.90
2009,08,15,12,40,16.00
2009,08,15,12,41,16.10
2009,08,15,12,42,16.20
2009,08,15,12,43,16.30
2009,08,15,12,44,16.30
2009,08,15,12,45,16.40
2009,08,15,12,46,16.50
2009,08,15,12,47,16.60
2009,08,15,12,48,16.50
2009,08,15,12,49,16.40
2009,08,15,12,50,16.30
2009,08,15,12,51,16.30
2009,08,15,12,52,16.20
2009,08,15,12,53,16.20
2009,08,15,12,54,16.20
2009,08,15,12,55,16.20
2009,08,15,12,56,16.20
2009,08,15,12,57,16.20
2009,08,15,12,58,16.30
2009,08,15,12,59,16.40
2009,08,15,13,00,16.60
2009,08,15,13,01,16.60
2009,08,15,13,02,16.60
2009,08,15,13,03,16.60
2009,08,15,13,04,16.50
2009,08,15,13,05,16.50
2009,08,15,13,06,16.50
2009,08,15,13,07,16.50
2009,08,15,13,08,16.60
2009,08,15,13,09,16.50
2009,08,15,13,10,16.50
2009,08,15,13,11,16.50
2009,08,15,13,12,16.50
2009,08,15,13,13,16.40
2009,08,15,13,14,16.40
2009,08,15,13,15,16.40
2009,08,15,13,16,16.40
2009,08,15,13,17,16.50
2009,08,15,13,18,16.50
2009,08,15,13,19,16.40
2009,08,15,13,20,16.40
2009,08,15,13,21,16.40
2009,08,15,13,22,16.40
2009,08,15,13,23,16.50
2009,08,15,13,24,16.50
2009,08,15,13,25,16.60
2009,08,15,13,26,16.50
2009,08,15,13,27,16.50
2009,08,15,13,28,16.40
2009,08,15,13,29,16.30
2009,08,15,13,30,16.30
2009,08,15,13,31,16.30
2009,08,15,13,32,16.30
2009,08,15,13,33,16.30
2009,08,15,13,34,16.30
2009,08,15,13,35,16.40
2009,08,15,13,36,16.50
2009,08,15,13,37,16.60
2009,08,15,13,38,16.70
2009,08,15,13,39,16.80
2009,08,15,13,40,16.80
2009,08,15,13,41,16.90
2009,08,15,13,42,16.90
2009,08,15,13,43,16.90
2009,08,15,13,44,16.90
2009,08,15,13,45,16.80
2009,08,15,13,46,16.80
2009,08,15,13,47,16.70
2009,08,15,13,48,16.80
2009,08,15,13,49,16.80
2009,08,15,13,50,16.70
2009,08,15,13,51,16.70
2009,08,15,13,52,16.70
2009,08,15,13,53,16.60
2009,08,15,13,54,16.70
2009,08,15,13,55,16.60
2009,08,15,13,56,16.60
2009,08,15,13,57,16.60
2009,08,15,13,58,16.70
2009,08,15,13,59,16.60
2009,08,15,14,00,16.70
2009,08,15,14,01,16.60
2009,08,15,14,02,16.70
2009,08,15,14,03,16.80
2009,08,15,14,04,16.80
2009,08,15,14,05,16.90
2009,08,15,14,06,16.90
2009,08,15,14,07,16.90
2009,08,15,14,08,16.90
2009,08,15,14,09,17.00
2009,08,15,14,10,17.10
2009,08,15,14,11,17.10
2009,08,15,14,12,17.20
2009,08,15,14,13,17.20
2009,08,15,14,14,17.10
2009,08,15,14,15,17.10
2009,08,15,14,16,17.10
2009,08,15,14,17,17.00
2009,08,15,14,18,17.10
2009,08,15,14,19,17.00
2009,08,15,14,20,16.90
2009,08,15,14,21,16.90
2009,08,15,14,22,16.90
2009,08,15,14,23,17.00
2009,08,15,14,24,17.00
2009,08,15,14,25,17.00
2009,08,15,14,26,17.00
2009,08,15,14,27,17.00
2009,08,15,14,28,16.90
2009,08,15,14,29,16.90
2009,08,15,14,30,16.80
2009,08,15,14,31,16.90
2009,08,15,14,32,16.90
2009,08,15,14,33,16.90
2009,08,15,14,34,16.80
2009,08,15,14,35,16.90
2009,08,15,14,36,16.90
2009,08,15,14,37,16.90
2009,08,15,14,38,17.00
2009,08,15,14,39,17.10
2009,08,15,14,40,17.10
2009,08,15,14,41,17.20
2009,08,15,14,42,17.20
2009,08,15,14,43,17.30
2009,08,15,14,44,17.40
2009,08,15,14,45,17.50
2009,08,15,14,46,17.40
2009,08,15,14,47,17.40
2009,08,15,14,48,17.30
2009,08,15,14,49,17.30
2009,08,15,14,50,17.30
2009,08,15,14,51,17.30
2009,08,15,14,52,17.40
2009,08,15,14,53,17.40
2009,08,15,14,54,17.40
2009,08,15,14,55,17.40
2009,08,15,14,56,17.40
2009,08,15,14,57,17.40
2009,08,15,14,58,17.40
2009,08,15,14,59,17.40
2009,08,15,15,00,17.40
2009,08,15,15,01,17.40
2009,08,15,15,02,17.50
2009,08,15,15,03,17.60
2009,08,15,15,04,17.70
2009,08,15,15,05,17.70
2009,08,15,15,06,17.70
2009,08,15,15,07,17.80
2009,08,15,15,08,17.90
2009,08,15,15,09,17.90
2009,08,15,15,10,18.00
2009,08,15,15,11,18.10
2009,08,15,15,12,18.10
2009,08,15,15,13,18.10
2009,08,15,15,14,18.10
2009,08,15,15,15,18.10
2009,08,15,15,16,18.10
2009,08,15,15,17,18.20
2009,08,15,15,18,18.20
2009,08,15,15,19,18.20
2009,08,15,15,20,18.30
2009,08,15,15,21,18.30
2009,08,15,15,22,18.30
2009,08,15,15,23,18.40
2009,08,15,15,24,18.50
2009,08,15,15,25,18.50
2009,08,15,15,26,18.50
2009,08,15,15,27,18.40
2009,08,15,15,28,18.40
2009,08,15,15,29,18.50
2009,08,15,15,30,18.40
2009,08,15,15,31,18.40
2009,08,15,15,32,18.40
2009,08,15,15,33,18.40
2009,08,15,15,34,18.50
2009,08,15,15,35,18.60
2009,08,15,15,36,18.70
2009,08,15,15,37,18.80
2009,08,15,15,38,18.80
2009,08,15,15,39,18.80
2009,08,15,15,40,18.80
2009,08,15,15,41,18.80
2009,08,15,15,42,18.80
2009,08,15,15,43,18.70
2009,08,15,15,44,18.70
2009,08,15,15,45,18.70
2009,08,15,15,46,18.70
2009,08,15,15,47,18.70
2009,08,15,15,48,18.70
2009,08,15,15,49,18.70
2009,08,15,15,50,18.70
2009,08,15,15,51,18.80
2009,08,15,15,52,18.80
2009,08,15,15,53,18.90
2009,08,15,15,54,18.90
2009,08,15,15,55,19.00
2009,08,15,15,56,19.00
2009,08,15,15,57,18.90
2009,08,15,15,58,18.90
2009,08,15,15,59,18.90
2009,08,15,16,00,18.90
2009,08,15,16,01,19.00
2009,08,15,16,02,19.00
2009,08,15,16,03,19.10
2009,08,15,16,04,19.00
2009,08,15,16,05,19.00
2009,08,15,16,06,18.90
2009,08,15,16,07,18.90
2009,08,15,16,08,18.80
2009,08,15,16,09,18.70
2009,08,15,16,10,18.60
2009,08,15,16,11,18.60
2009,08,15,16,12,18.60
2009,08,15,16,13,18.50
2009,08,15,16,14,18.50
2009,08,15,16,15,18.50
2009,08,15,16,16,18.40
2009,08,15,16,17,18.40
2009,08,15,16,18,18.30
2009,08,15,16,19,18.30
2009,08,15,16,20,18.20
2009,08,15,16,21,18.20
2009,08,15,16,22,18.20
2009,08,15,16,23,18.20
2009,08,15,16,24,18.20
2009,08,15,16,25,18.20
2009,08,15,16,26,18.20
2009,08,15,16,27,18.30
2009,08,15,16,28,18.30
2009,08,15,16,29,18.30
2009,08,15,16,30,18.30
2009,08,15,16,31,18.30
2009,08,15,16,32,18.40
2009,08,15,16,33,18.40
2009,08,15,16,34,18.40
2009,08,15,16,35,18.40
2009,08,15,16,36,18.40
2009,08,15,16,37,18.40
2009,08,15,16,38,18.40
2009,08,15,16,39,18.40
2009,08,15,16,40,18.40
2009,08,15,16,41,18.40
2009,08,15,16,42,18.40
2009,08,15,16,43,18.40
2009,08,15,16,44,18.30
2009,08,15,16,45,18.20
2009,08,15,16,46,18.20
2009,08,15,16,47,18.20
2009,08,15,16,48,18.20
2009,08,15,16,49,18.20
2009,08,15,16,50,18.20
2009,08,15,16,51,18.20
2009,08,15,16,52,18.10
2009,08,15,16,53,18.10
2009,08,15,16,54,18.10
2009,08,15,16,55,18.10
2009,08,15,16,56,18.10
2009,08,15,16,57,18.10
2009,08,15,16,58,18.10
2009,08,15,16,59,18.00
2009,08,15,17,00,17.90
2009,08,15,17,01,17.90
2009,08,15,17,02,17.90
2009,08,15,17,03,17.90
2009,08,15,17,04,17.90
2009,08,15,17,05,17.90
2009,08,15,17,06,17.80
2009,08,15,17,07,17.80
2009,08,15,17,08,17.70
2009,08,15,17,09,17.70
2009,08,15,17,10,17.70
2009,08,15,17,11,17.60
2009,08,15,17,12,17.60
2009,08,15,17,13,17.60
2009,08,15,17,14,17.50
2009,08,15,17,15,17.40
2009,08,15,17,16,17.40
2009,08,15,17,17,17.40
2009,08,15,17,18,17.30
2009,08,15,17,19,17.30
2009,08,15,17,20,17.30
2009,08,15,17,21,17.20
2009,08,15,17,22,17.20
2009,08,15,17,23,17.20